Location: Balocaue
(12.0746°N, 124.2109°E)
Time: 02:26:43
(UTC+00:00)

Daily predictions for brighter satellites

Satellite Brightness Start Highest point End
(mag) Time Altitude Azimuth Time Altitude Azimuth Time Altitude Azimuth
Centaur AC-146 3.8 09:26:00 10° W 09:29:42 62° S 09:53:09 10° ESE
NOSS 3-2 (A) 3.4 09:37:35 10° S 09:42:54 52° ESE 09:48:22 10° NE
USA 234 3.8 09:39:53 10° ENE 09:45:54 39° SE 09:51:53 10° SSW
Meteor 1-21 Rocket 4.3 09:41:04 10° N 09:46:42 56° E 09:52:14 10° SSE
Cosmos 1908 3.5 09:45:24 10° SSE 09:49:10 47° E 09:52:56 10° NNE
ASTEX 1 3.4 09:45:47 10° N 09:50:45 77° E 09:55:44 10° S
Cosmos 1758 Rocket 3.6 09:51:23 10° N 09:55:51 89° E 10:00:21 10° S
YAOGAN 1 3.6 09:54:35 10° SE 09:58:04 24° ENE 10:01:33 10° NNE
Cosmos 44 4.2 09:56:25 10° S 10:00:58 30° ESE 10:05:21 10° NE
Cosmos 1486 Rocket 4.2 09:56:01 10° NNW 10:01:20 81° WSW 10:06:39 10° S
NOSS 3-2 (C) 3.4 10:00:26 10° S 10:05:41 48° ESE 10:11:06 10° NE
SWIFT 3.7 10:03:31 10° SW 10:07:06 26° SSE 10:09:48 15° ESE
Cosmos 1354 Rocket 4.2 10:03:02 10° N 10:08:04 47° ENE 10:13:04 10° SSE
Cosmos 968 Rocket 3.5 10:04:06 10° N 10:09:15 58° ENE 10:14:21 10° SSE
CZ-4C R/B 3.2 10:05:49 10° NNW 10:13:46 57° ENE 10:21:57 10° SE
Cosmos 1727 Rocket 4.1 10:08:13 10° SSE 10:14:12 51° E 10:20:09 10° NNE
CZ-4 R/B 1.4 10:10:22 10° SSE 10:14:21 59° ENE 10:18:24 10° N
ARIANE 44L R/B 4.2 09:57:07 10° W 10:14:39 51° S 10:17:34 17° ESE
SEDSat Delta rocket 3.3 10:15:14 10° SW 10:20:15 58° SSE 10:22:44 25° ENE
CZ-4 R/B 4.3 10:16:35 10° SSE 10:20:42 80° ENE 10:24:47 10° N
Cosmos 1328 4.0 10:17:13 10° N 10:21:00 45° E 10:24:45 10° SSE
Centaur D-1AR AC-41 3.2 10:13:44 10° WSW 10:23:05 80° NNW 10:25:19 25° ENE
Cosmos 1605 Rocket 4.2 10:19:58 10° NNE 10:25:43 43° E 10:31:25 10° SSE
CZ-2C R/B 4.5 10:24:06 22° ENE 10:26:02 31° E 10:30:09 10° SSE
CSL-04 Debris 4.1 10:22:59 10° SSE 10:28:19 64° ENE 10:33:41 10° N
Centaur AC-102 4.0 10:17:24 10° W 10:31:10 73° N 10:34:01 27° ENE
Cosmos 1503 Rocket 4.1 10:27:08 10° NNW 10:32:17 78° WSW 10:37:29 10° S
Cosmos 1934 Rocket 4.1 10:30:46 10° N 10:37:08 83° W 10:43:29 10° S
ATLAS 3B R/B 2.6 10:37:03 10° SSW 10:43:57 69° ESE 10:48:45 20° NNE
Hubble Space Telescope 2.9 10:41:17 10° W 10:44:29 22° SSW 10:47:13 12° SSE
COSMOS 2406 3.9 10:40:44 10° N 10:44:56 33° NE 10:44:56 33° NE
Atlas Centaur 2 1.8 10:39:58 10° WNW 10:46:02 83° NNE 10:47:33 46° ESE
Cosmos 1300 2.7 10:48:20 10° S 10:52:08 75° W 10:53:39 35° N
Cosmos 1242 Rocket 3.6 10:48:47 10° NNW 10:52:18 46° W 10:55:47 10° S
ADEOS Rocket 3.4 10:45:23 10° NNE 10:52:21 49° E 10:58:39 10° S
Cosmos 1763 Rocket 4.3 10:49:45 10° S 10:53:09 33° SE 10:53:09 33° SE
CENTAUR R/B 2.1 10:51:18 10° SSW 10:56:38 84° WNW 10:59:46 28° NNE
SL-24 R/B 4.3 10:52:06 10° N 10:57:11 84° W 11:01:34 10° SSW
Meteor 1-11 4.3 10:56:21 10° N 11:02:09 80° W 11:07:58 10° S
Cosmos 2344 4.3 10:55:08 10° S 11:02:25 34° ESE 11:02:25 34° ESE
Cosmos 2297 3.9 10:57:36 10° SSW 11:03:13 70° WNW 11:07:28 18° N
ASTRO E2 4.0 11:01:34 10° NW 11:04:01 34° NNW 11:04:01 34° NNW
ARIANE 5 R/B 3.9 02:26:00 10° W 11:13:32 44° SSW 11:15:22 36° SSE
H-II Stage 2 4.1 11:05:07 10° W 11:14:11 42° NNW 11:14:17 42° NNW
Cosmos 1153 Rocket 4.3 11:13:37 10° N 11:19:45 88° E 11:25:56 10° S
Cosmos 839 Rocket 4.5 11:21:51 10° NNW 11:27:41 61° NNE 11:27:41 61° NNE
Centaur D-1A AC-31 4.0 11:47:18 10° WNW 11:47:20 10° WNW 11:47:20 10° WNW
